Time,TemperatureF,DewpointF,PressureIn,WindDirection,WindDirectionDegrees,WindSpeedMPH,WindSpeedGustMPH,Humidity,HourlyPrecipIn,Conditions,Clouds,dailyrainin,SoftwareType,DateUTC
2013-07-06 00:13:00,74.7,60.0,29.80,South,171,0.0,-999.0,61,-99.99,,,0.00,weatherlink.com 1.10,2013-07-06 05:13:00,
2013-07-06 00:28:00,74.6,60.0,29.80,SW,234,0.0,-999.0,61,-99.99,,,0.00,weatherlink.com 1.10,2013-07-06 05:28:00,
2013-07-06 00:43:00,74.2,60.0,29.81,South,179,0.0,-999.0,62,-99.99,,,0.00,weatherlink.com 1.10,2013-07-06 05:43:00,
2013-07-06 00:58:00,73.9,60.0,29.81,South,171,0.0,-999.0,63,-99.99,,,0.00,weatherlink.com 1.10,2013-07-06 05:58:00,
2013-07-06 01:13:00,73.5,60.0,29.81,South,174,0.0,-999.0,63,-99.99,,,0.00,weatherlink.com 1.10,2013-07-06 06:13:00,
2013-07-06 01:28:00,73.0,60.0,29.80,South,184,1.0,-999.0,63,-99.99,,,0.00,weatherlink.com 1.10,2013-07-06 06:28:00,
2013-07-06 01:43:00,72.8,60.0,29.81,SW,226,0.0,-999.0,64,-99.99,,,0.00,weatherlink.com 1.10,2013-07-06 06:43:00,
2013-07-06 01:58:00,72.3,60.0,29.81,WNW,288,0.0,-999.0,65,-99.99,,,0.00,weatherlink.com 1.10,2013-07-06 06:58:00,
2013-07-06 02:14:00,71.8,61.0,29.82,SSE,166,0.0,-999.0,69,-99.99,,,0.00,weatherlink.com 1.10,2013-07-06 07:14:00,
2013-07-06 02:29:00,71.3,60.0,29.82,SSE,163,0.0,-999.0,67,-99.99,,,0.00,weatherlink.com 1.10,2013-07-06 07:29:00,
2013-07-06 02:44:00,70.8,60.0,29.82,SSE,163,0.0,-999.0,69,-99.99,,,0.00,weatherlink.com 1.10,2013-07-06 07:44:00,
2013-07-06 02:59:00,70.3,60.0,29.82,SSE,163,0.0,-999.0,71,-99.99,,,0.00,weatherlink.com 1.10,2013-07-06 07:59:00,
2013-07-06 03:14:00,69.4,60.0,29.82,SSE,163,0.0,-999.0,73,-99.99,,,0.00,weatherlink.com 1.10,2013-07-06 08:14:00,
2013-07-06 03:29:00,68.9,60.0,29.82,SW,236,0.0,-999.0,74,-99.99,,,0.00,weatherlink.com 1.10,2013-07-06 08:29:00,
2013-07-06 03:44:00,68.4,60.0,29.82,WSW,246,0.0,-999.0,75,-99.99,,,0.00,weatherlink.com 1.10,2013-07-06 08:44:00,
2013-07-06 03:59:00,68.1,61.0,29.82,WSW,246,0.0,-999.0,77,-99.99,,,0.00,weatherlink.com 1.10,2013-07-06 08:59:00,
2013-07-06 04:14:00,67.8,60.0,29.82,WSW,246,0.0,-999.0,77,-99.99,,,0.00,weatherlink.com 1.10,2013-07-06 09:14:00,
2013-07-06 04:29:00,67.6,61.0,29.82,WSW,241,0.0,-999.0,79,-99.99,,,0.00,weatherlink.com 1.10,2013-07-06 09:29:00,
2013-07-06 04:44:00,67.3,61.0,29.82,WSW,241,0.0,-999.0,79,-99.99,,,0.00,weatherlink.com 1.10,2013-07-06 09:44:00,
2013-07-06 04:59:00,66.8,61.0,29.82,WSW,241,0.0,-999.0,81,-99.99,,,0.00,weatherlink.com 1.10,2013-07-06 09:59:00,
2013-07-06 05:15:00,66.3,61.0,29.82,WSW,241,0.0,-999.0,82,-99.99,,,0.00,weatherlink.com 1.10,2013-07-06 10:15:00,
2013-07-06 05:30:00,65.6,60.0,29.82,WSW,241,0.0,-999.0,82,-99.99,,,0.00,weatherlink.com 1.10,2013-07-06 10:30:00,
2013-07-06 05:45:00,65.2,60.0,29.82,WSW,241,0.0,-999.0,83,-99.99,,,0.00,weatherlink.com 1.10,2013-07-06 10:45:00,
2013-07-06 06:00:00,64.7,60.0,29.82,WSW,241,0.0,-999.0,84,-99.99,,,0.00,weatherlink.com 1.10,2013-07-06 11:00:00,
2013-07-06 06:14:00,64.2,59.0,29.82,West,263,0.0,-999.0,84,-99.99,,,0.00,weatherlink.com 1.10,2013-07-06 11:14:00,
2013-07-06 06:29:00,63.9,59.0,29.83,West,263,0.0,-999.0,85,-99.99,,,0.00,weatherlink.com 1.10,2013-07-06 11:29:00,
2013-07-06 06:44:00,64.0,61.0,29.83,West,263,0.0,-999.0,89,-99.99,,,0.00,weatherlink.com 1.10,2013-07-06 11:44:00,
2013-07-06 06:59:00,64.5,62.0,29.83,West,263,0.0,-999.0,90,-99.99,,,0.00,weatherlink.com 1.10,2013-07-06 11:59:00,
2013-07-06 07:14:00,65.0,62.0,29.84,West,263,0.0,-999.0,91,-99.99,,,0.00,weatherlink.com 1.10,2013-07-06 12:14:00,
2013-07-06 07:29:00,65.6,63.0,29.84,West,263,0.0,-999.0,91,-99.99,,,0.00,weatherlink.com 1.10,2013-07-06 12:29:00,
2013-07-06 07:44:00,66.4,63.0,29.84,WSW,250,0.0,-999.0,88,-99.99,,,0.00,weatherlink.com 1.10,2013-07-06 12:44:00,
2013-07-06 07:59:00,67.6,63.0,29.84,SW,232,0.0,-999.0,84,-99.99,,,0.00,weatherlink.com 1.10,2013-07-06 12:59:00,
2013-07-06 08:15:00,69.3,63.0,29.84,South,176,3.0,-999.0,79,-99.99,,,0.00,weatherlink.com 1.10,2013-07-06 13:15:00,
2013-07-06 08:30:00,70.9,63.0,29.83,SSW,208,0.0,-999.0,75,-99.99,,,0.00,weatherlink.com 1.10,2013-07-06 13:30:00,
2013-07-06 08:45:00,72.8,63.0,29.83,SSE,166,0.0,-999.0,71,-99.99,,,0.00,weatherlink.com 1.10,2013-07-06 13:45:00,
2013-07-06 09:00:00,74.2,64.0,29.84,WSW,247,0.0,-999.0,70,-99.99,,,0.00,weatherlink.com 1.10,2013-07-06 14:00:00,
2013-07-06 09:15:00,75.3,64.0,29.84,West,274,1.0,-999.0,67,-99.99,,,0.00,weatherlink.com 1.10,2013-07-06 14:15:00,
2013-07-06 09:30:00,76.1,63.0,29.83,SSW,203,5.0,-999.0,63,-99.99,,,0.00,weatherlink.com 1.10,2013-07-06 14:30:00,
2013-07-06 09:45:00,76.7,64.0,29.82,South,178,1.0,-999.0,64,-99.99,,,0.00,weatherlink.com 1.10,2013-07-06 14:45:00,
2013-07-06 10:00:00,77.2,63.0,29.82,South,169,3.0,-999.0,61,-99.99,,,0.00,weatherlink.com 1.10,2013-07-06 15:00:00,
2013-07-06 10:15:00,78.1,64.0,29.82,SSE,161,4.0,-999.0,62,-99.99,,,0.00,weatherlink.com 1.10,2013-07-06 15:15:00,
2013-07-06 10:30:00,79.0,64.0,29.82,South,174,2.0,-999.0,60,-99.99,,,0.00,weatherlink.com 1.10,2013-07-06 15:30:00,
2013-07-06 10:45:00,79.9,64.0,29.82,West,275,0.0,-999.0,58,-99.99,,,0.00,weatherlink.com 1.10,2013-07-06 15:45:00,
2013-07-06 11:00:00,81.8,63.0,29.81,SW,228,3.0,-999.0,54,-99.99,,,0.00,weatherlink.com 1.10,2013-07-06 16:00:00,
2013-07-06 11:30:00,85.3,64.0,29.80,SSW,209,3.0,-999.0,49,-99.99,,,0.00,weatherlink.com 1.10,2013-07-06 16:30:00,
2013-07-06 11:45:00,86.3,67.0,29.80,South,191,5.0,-999.0,52,-99.99,,,0.00,weatherlink.com 1.10,2013-07-06 16:45:00,
2013-07-06 12:31:00,88.4,65.0,29.80,SW,231,1.0,-999.0,46,-99.99,,,0.00,weatherlink.com 1.10,2013-07-06 17:31:00,
2013-07-06 13:01:00,89.0,64.0,29.79,SE,142,0.0,-999.0,43,-99.99,,,0.00,weatherlink.com 1.10,2013-07-06 18:01:00,
2013-07-06 13:16:00,89.7,64.0,29.78,SW,232,2.0,-999.0,43,-99.99,,,0.00,weatherlink.com 1.10,2013-07-06 18:16:00,
2013-07-06 13:31:00,90.1,67.0,29.78,South,188,1.0,-999.0,47,-99.99,,,0.00,weatherlink.com 1.10,2013-07-06 18:31:00,
2013-07-06 13:46:00,90.5,66.0,29.78,SSE,165,0.0,-999.0,44,-99.99,,,0.00,weatherlink.com 1.10,2013-07-06 18:46:00,
2013-07-06 14:01:00,90.5,68.0,29.78,SSW,194,0.0,-999.0,47,-99.99,,,0.00,weatherlink.com 1.10,2013-07-06 19:01:00,
2013-07-06 17:40:00,87.8,67.0,29.76,SW,221,1.0,-999.0,50,-99.99,,,0.00,weatherlink.com 1.10,2013-07-06 22:40:00,
2013-07-06 17:46:00,87.4,68.0,29.76,WSW,245,0.0,-999.0,52,-99.99,,,0.00,weatherlink.com 1.10,2013-07-06 22:46:00,
2013-07-06 18:01:00,85.9,67.0,29.76,SSW,206,1.0,-999.0,53,-99.99,,,0.00,weatherlink.com 1.10,2013-07-06 23:01:00,
2013-07-06 18:17:00,85.1,68.0,29.76,WSW,248,2.0,-999.0,56,-99.99,,,0.00,weatherlink.com 1.10,2013-07-06 23:17:00,
2013-07-06 18:32:00,84.5,68.0,29.77,WSW,243,0.0,-999.0,58,-99.99,,,0.00,weatherlink.com 1.10,2013-07-06 23:32:00,
2013-07-06 18:47:00,84.0,70.0,29.77,SSW,198,0.0,-999.0,62,-99.99,,,0.00,weatherlink.com 1.10,2013-07-06 23:47:00,
2013-07-06 19:17:00,83.0,69.0,29.77,ESE,117,0.0,-999.0,62,-99.99,,,0.00,weatherlink.com 1.10,2013-07-07 00:17:00,
2013-07-06 19:32:00,82.4,69.0,29.77,SE,128,0.0,-999.0,64,-99.99,,,0.00,weatherlink.com 1.10,2013-07-07 00:32:00,
2013-07-06 19:47:00,81.4,68.0,29.77,SE,129,0.0,-999.0,63,-99.99,,,0.00,weatherlink.com 1.10,2013-07-07 00:47:00,
2013-07-06 20:02:00,80.7,67.0,29.78,West,262,0.0,-999.0,63,-99.99,,,0.00,weatherlink.com 1.10,2013-07-07 01:02:00,
2013-07-06 20:32:00,79.6,67.0,29.77,WSW,252,0.0,-999.0,65,-99.99,,,0.00,weatherlink.com 1.10,2013-07-07 01:32:00,
2013-07-06 21:46:00,77.2,67.0,29.79,WSW,252,0.0,-999.0,71,-99.99,,,0.00,weatherlink.com 1.10,2013-07-07 02:46:00,
2013-07-06 22:01:00,76.7,67.0,29.79,WSW,252,0.0,-999.0,72,-99.99,,,0.00,weatherlink.com 1.10,2013-07-07 03:01:00,
2013-07-06 22:47:00,76.3,66.0,29.79,NW,320,0.0,-999.0,71,-99.99,,,0.00,weatherlink.com 1.10,2013-07-07 03:47:00,
2013-07-06 23:02:00,76.1,66.0,29.78,NW,311,0.0,-999.0,71,-99.99,,,0.00,weatherlink.com 1.10,2013-07-07 04:02:00,
2013-07-06 23:17:00,75.8,65.0,29.78,WSW,241,0.0,-999.0,70,-99.99,,,0.00,weatherlink.com 1.10,2013-07-07 04:17:00,
2013-07-06 23:32:00,75.6,65.0,29.78,WSW,240,0.0,-999.0,70,-99.99,,,0.00,weatherlink.com 1.10,2013-07-07 04:32:00,
2013-07-06 23:47:00,75.8,65.0,29.78,WSW,254,0.0,-999.0,70,-99.99,,,0.00,weatherlink.com 1.10,2013-07-07 04:47:00,